Stündliche Wetter Bolshie Milcy

Heute, 17 Juni, Donnerstag

Zeit Temperatur Niederschläge Wind Luftdruck Luftfeuchtigkeit
00:00 +13°C° 0 mm 2 m/S 758 mmHg 74%
01:00 +12°C° 0 mm 2 m/S 759 mmHg 76%
02:00 +12°C° 0 mm 1 m/S 759 mmHg 78%
03:00 +12°C° 0 mm 1 m/S 759 mmHg 78%
04:00 +13°C° 0 mm 1 m/S 759 mmHg 78%
05:00 +13°C° 0 mm 1 m/S 760 mmHg 77%
06:00 +15°C° 0 mm 1 m/S 760 mmHg 70%
07:00 +16°C° 0 mm 0 m/S 760 mmHg 63%
08:00 +18°C° 0 mm 0 m/S 760 mmHg 56%
09:00 +22°C° 0 mm 1 m/S 760 mmHg 52%
10:00 +23°C° 0 mm 1 m/S 761 mmHg 48%
11:00 +24°C° 0 mm 1 m/S 761 mmHg 43%
12:00 +25°C° 0 mm 1 m/S 761 mmHg 42%
13:00 +26°C° 0 mm 1 m/S 760 mmHg 40%
14:00 +26°C° 0 mm 2 m/S 760 mmHg 39%
15:00 +26°C° 0 mm 2 m/S 760 mmHg 41%
16:00 +26°C° 0 mm 2 m/S 760 mmHg 44%
17:00 +26°C° 0 mm 2 m/S 760 mmHg 46%
18:00 +24°C° 0 mm 2 m/S 760 mmHg 54%
19:00 +21°C° 0 mm 2 m/S 760 mmHg 62%
20:00 +20°C° 0 mm 2 m/S 760 mmHg 70%
21:00 +19°C° 0 mm 2 m/S 760 mmHg 70%
22:00 +18°C° 0 mm 2 m/S 760 mmHg 70%
23:00 +16°C° 0 mm 2 m/S 761 mmHg 70%

Morgen, 18 Juni, Freitag

Zeit Temperatur Niederschläge Wind Luftdruck Luftfeuchtigkeit
00:00 +16°C° 0 mm 2 m/S 761 mmHg 72%
01:00 +15°C° 0 mm 2 m/S 761 mmHg 74%
02:00 +15°C° 0 mm 2 m/S 761 mmHg 76%
03:00 +15°C° 0 mm 2 m/S 761 mmHg 77%
04:00 +15°C° 0 mm 2 m/S 761 mmHg 78%
05:00 +15°C° 0 mm 2 m/S 761 mmHg 79%
06:00 +18°C° 0 mm 2 m/S 761 mmHg 72%
07:00 +20°C° 0 mm 3 m/S 761 mmHg 66%
08:00 +22°C° 0 mm 3 m/S 761 mmHg 59%
09:00 +24°C° 0 mm 3 m/S 760 mmHg 54%
10:00 +26°C° 0 mm 3 m/S 760 mmHg 50%
11:00 +27°C° 0 mm 3 m/S 760 mmHg 45%
12:00 +28°C° 0 mm 3 m/S 760 mmHg 43%
13:00 +28°C° 0 mm 4 m/S 759 mmHg 42%
14:00 +29°C° 0 mm 4 m/S 759 mmHg 40%
15:00 +29°C° 0 mm 4 m/S 759 mmHg 42%
16:00 +29°C° 0 mm 4 m/S 759 mmHg 44%
17:00 +29°C° 0 mm 3 m/S 758 mmHg 47%
18:00 +27°C° 0 mm 3 m/S 758 mmHg 54%
19:00 +25°C° 0 mm 3 m/S 758 mmHg 62%
20:00 +22°C° 0 mm 3 m/S 758 mmHg 70%
21:00 +21°C° 0 mm 3 m/S 759 mmHg 73%
22:00 +20°C° 0 mm 3 m/S 759 mmHg 77%
23:00 +18°C° 0 mm 3 m/S 759 mmHg 80%

übermorgen, 19 Juni, Samstag

Zeit Temperatur Niederschläge Wind Luftdruck Luftfeuchtigkeit
00:00 +18°C° 0 mm 3 m/S 759 mmHg 83%
01:00 +17°C° 0 mm 2 m/S 759 mmHg 86%
02:00 +17°C° 0 mm 2 m/S 759 mmHg 89%
03:00 +17°C° 0 mm 2 m/S 759 mmHg 88%
04:00 +17°C° 0 mm 2 m/S 759 mmHg 86%
05:00 +17°C° 0 mm 2 m/S 759 mmHg 85%
06:00 +19°C° 0 mm 2 m/S 759 mmHg 78%
07:00 +21°C° 0 mm 3 m/S 759 mmHg 70%
08:00 +24°C° 0 mm 3 m/S 759 mmHg 63%
09:00 +26°C° 0 mm 3 m/S 759 mmHg 57%
10:00 +27°C° 0 mm 3 m/S 759 mmHg 52%
11:00 +28°C° 0 mm 4 m/S 758 mmHg 46%
12:00 +29°C° 0 mm 4 m/S 758 mmHg 44%
13:00 +29°C° 0 mm 4 m/S 758 mmHg 42%
14:00 +30°C° 0 mm 4 m/S 758 mmHg 41%
15:00 +30°C° 0 mm 4 m/S 757 mmHg 43%
16:00 +30°C° 0 mm 3 m/S 757 mmHg 45%
17:00 +29°C° 0 mm 3 m/S 757 mmHg 47%
18:00 +28°C° 0 mm 3 m/S 757 mmHg 55%
19:00 +26°C° 0 mm 3 m/S 757 mmHg 64%
20:00 +24°C° 0 mm 3 m/S 756 mmHg 72%
21:00 +22°C° 0 mm 3 m/S 757 mmHg 74%
22:00 +21°C° 0 mm 3 m/S 757 mmHg 77%
23:00 +20°C° 0 mm 3 m/S 757 mmHg 79%

20 Juni, Sonntag

Zeit Temperatur Niederschläge Wind Luftdruck Luftfeuchtigkeit
00:00 +20°C° 0 mm 3 m/S 757 mmHg 81%
01:00 +19°C° 0 mm 3 m/S 757 mmHg 84%
02:00 +18°C° 0 mm 3 m/S 757 mmHg 86%
03:00 +18°C° 0 mm 3 m/S 757 mmHg 86%
04:00 +19°C° 0 mm 3 m/S 757 mmHg 85%
05:00 +19°C° 0 mm 3 m/S 757 mmHg 85%
06:00 +21°C° 0 mm 3 m/S 756 mmHg 78%
07:00 +23°C° 0 mm 4 m/S 756 mmHg 71%
08:00 +25°C° 0 mm 4 m/S 756 mmHg 64%
09:00 +27°C° 0 mm 4 m/S 756 mmHg 59%
10:00 +28°C° 0 mm 4 m/S 756 mmHg 54%
11:00 +29°C° 0 mm 4 m/S 756 mmHg 49%
12:00 +30°C° 0 mm 4 m/S 756 mmHg 46%
13:00 +30°C° 0 mm 4 m/S 755 mmHg 43%
14:00 +32°C° 0 mm 4 m/S 755 mmHg 40%
15:00 +32°C° 0 mm 4 m/S 755 mmHg 42%
16:00 +30°C° 0 mm 4 m/S 755 mmHg 45%
17:00 +30°C° 0 mm 4 m/S 755 mmHg 47%
18:00 +28°C° 0 mm 3 m/S 755 mmHg 55%
19:00 +27°C° 0 mm 3 m/S 755 mmHg 63%
20:00 +25°C° 0 mm 2 m/S 755 mmHg 71%
21:00 +24°C° 0 mm 2 m/S 755 mmHg 75%
22:00 +23°C° 0 mm 2 m/S 755 mmHg 79%
23:00 +21°C° 0 mm 2 m/S 755 mmHg 83%

21 Juni, Montag

Zeit Temperatur Niederschläge Wind Luftdruck Luftfeuchtigkeit
00:00 +21°C° 0 mm 2 m/S 755 mmHg 87%
01:00 +20°C° 0 mm 2 m/S 755 mmHg 91%
02:00 +19°C° 0 mm 2 m/S 755 mmHg 95%
03:00 +19°C° 0 mm 2 m/S 756 mmHg 93%
04:00 +20°C° 0 mm 2 m/S 756 mmHg 91%
05:00 +20°C° 0 mm 2 m/S 756 mmHg 90%
06:00 +23°C° 0 mm 2 m/S 756 mmHg 82%
07:00 +25°C° 0 mm 1 m/S 756 mmHg 74%
08:00 +26°C° 0 mm 1 m/S 756 mmHg 66%
09:00 +28°C° 0 mm 2 m/S 756 mmHg 61%
10:00 +29°C° 0 mm 2 m/S 756 mmHg 56%
11:00 +30°C° 0 mm 2 m/S 756 mmHg 51%
12:00 +31°C° 0 mm 2 m/S 756 mmHg 49%
13:00 +31°C° 0 mm 2 m/S 756 mmHg 47%
14:00 +33°C° 0 mm 3 m/S 756 mmHg 45%
15:00 +31°C° 0 mm 2 m/S 755 mmHg 50%
16:00 +30°C° 0 mm 2 m/S 755 mmHg 55%
17:00 +29°C° 0 mm 2 m/S 755 mmHg 60%
18:00 +28°C° 0 mm 2 m/S 755 mmHg 64%
19:00 +28°C° 0 mm 2 m/S 755 mmHg 68%
20:00 +27°C° 0 mm 2 m/S 755 mmHg 72%
21:00 +26°C° 0 mm 2 m/S 755 mmHg 75%
22:00 +25°C° 0 mm 2 m/S 756 mmHg 78%
23:00 +23°C° 0 mm 2 m/S 756 mmHg 80%

22 Juni, Dienstag

Zeit Temperatur Niederschläge Wind Luftdruck Luftfeuchtigkeit
00:00 +23°C° 0 mm 2 m/S 756 mmHg 83%
01:00 +21°C° 0 mm 2 m/S 756 mmHg 85%
02:00 +21°C° 0 mm 2 m/S 756 mmHg 87%
03:00 +21°C° 0 mm 2 m/S 756 mmHg 86%
04:00 +21°C° 0 mm 2 m/S 756 mmHg 86%
05:00 +21°C° 0 mm 2 m/S 756 mmHg 85%
06:00 +24°C° 0 mm 2 m/S 756 mmHg 77%
07:00 +25°C° 0 mm 2 m/S 756 mmHg 68%
08:00 +27°C° 0 mm 3 m/S 756 mmHg 60%
09:00 +29°C° 0 mm 3 m/S 756 mmHg 55%
10:00 +30°C° 0 mm 3 m/S 756 mmHg 51%
11:00 +33°C° 0 mm 4 m/S 756 mmHg 46%
12:00 +33°C° 0 mm 4 m/S 756 mmHg 43%
13:00 +34°C° 0 mm 4 m/S 756 mmHg 41%
14:00 +35°C° 0 mm 4 m/S 756 mmHg 38%
15:00 +35°C° 0 mm 4 m/S 756 mmHg 40%
16:00 +34°C° 0 mm 3 m/S 755 mmHg 41%
17:00 +34°C° 0 mm 3 m/S 755 mmHg 43%
18:00 +31°C° 0 mm 3 m/S 755 mmHg 51%
19:00 +29°C° 0 mm 3 m/S 755 mmHg 59%
20:00 +27°C° 0 mm 2 m/S 755 mmHg 67%
21:00 +26°C° 0 mm 2 m/S 756 mmHg 69%
22:00 +25°C° 0 mm 2 m/S 756 mmHg 72%
23:00 +24°C° 0 mm 2 m/S 756 mmHg 74%
Mehr zeigen

Wir brauchen deine Erlaubnis

Meteoprog und unser Service Anbieter werden persönliche Daten aufbewahren, so wie Cookies, Geräte Bezeichnung oder ähnliche Technologien von deinem Gerät und Prozess, so wie Persönliche Daten Inhalte und Werbungen, genauso wie social Media und den Verkehr zu analysieren.

  • Aufbewahrung und/oder Zugang zu deiner Geräte Informationen.

    Cookies, Geräte Bezeichnung oder andere Informationen, können aufbewahrt oder Zugang zu deinem Gerät erhalten, für den Grund, der oben angegeben wird.

  • Personalisierte Werbung und Inhalte, Messungen, Einblick in das Publikum und Produkt Entwicklung.

    Werbungen und Inhalte können personalisiert werden, basierend auf ein Profil. Mehr Daten können besser personalisierte Werbungen und Inhalte hinzufügen. Werbung und Inhalte können gezeigt und gemessen werden. Einblicke über das Publikum, welche die Werbung gesehen haben und den Inhalt, können abgeleitet werden. So wie Daten können genutzt werden, um es zu verbessern oder die Benutzer Erfahrung zu verbessern das System und die Software.

Wenn du “Ich stimme zu” klickst, erlaubst du uns, die Cookies zu benutzen die Geräte Bezeichnung, den Web oder ähnliche Technologien zu benutzen. Deine Settings, können in deinem Gerät bei deinem Browser geändert werden.

Für den bestimmten Zweck, berechtigten Interessen beruhen darauf, mehr als auf den Inhalt. Du kannst mehr darüber in unseren Privaten und Cookie Politik lesen.